sat.trackr.live / text

‹ back to catalog

STARLINK-30414

NORAD 57859 · 2023-141V

PAYLOAD ACTIVE UNKNOWN

§ Identity

Operator
Country
US
Launch date
2023-09-12
Launch site
AFWTR
Launch vehicle
Mass (kg)
RCS (m²)

Purposes: comms

External: N2YO · Heavens-Above · Gunter

§ Orbital elements

Epoch: 2026-09-20T21:50:43.872864Z

Period
93.85 min
Inclination
53.1610°
Eccentricity
0.0000722
Mean motion
15.34391440 rev/d
Perigee alt
462.2 km
Apogee alt
463.2 km
Semi-major
6,840.9 km
B*
2.4868e-5
RAAN
95.4635°
Arg perigee
95.5171°
Mean anomaly
264.5914°
Rev number
17,024

§ Raw data

STARLINK-304141 57859U 23141V   26263.91023001  .00000464  00000+0  24868-4 0  99952 57859  53.1610  95.4635 0000722  95.5171 264.5914 15.34391440170242

JSON: /api/v1/satellites/57859 · /tle

For live sub-satellite position, see the globe view (requires WebGL).

§ Visibility from observer

Set your observer location to see the next 7 days of passes ≥ 10°. The values pass through the URL so the page stays shareable.

No JS? Fill the form by hand. The geolocation button needs JavaScript.